Погода Екатерино-Никольское

Погода Екатерино-Никольское : погода сейчас, прогноз погоды и архив. Всё, что Вы хотите узнать о погоде Екатерино-Никольское!

Хотите узнать прогноз погоды Екатерино-Никольское? Тогда Вам сюда: Погода Екатерино-Никольское

Поиск расширенной информации на нашем сайте:

Другие новости

Новости СМИ2

Главная страница сайта

Новости сайта

03.07.2017

Напоминаем, что на нашем специализированном сайте Метеоцентр.Азия вы можете получить высокодетализированные автоматические прогнозы погоды по пунктам России, СНГ и мира в авиационном формате (включающие направление и скорость ветра, видимость, явления погоды, количество и форму облачности, нижнюю и верхнюю границу облачности).


Погода Екатерино-Никольское - сегодня

Время (UTC), дата Ветер
(°,м/с) 
Видим.   Явления Облачность Т
(°С)
Тd
(°С)
f(%) Тe
(°С)
Pmin
(гПа)
dP
(гПа)
Po
(мм)
O2
(г/м3)
Тmin Tmax R s Состояние
почвы
18 19.09.17 300 (СЗ) 20000 м    10/5 600 м кучево-дожд., средняя, верхняя 
[Cb cap|Ac As|Ci fib]
+15 +13.4 90 +22  1004.3  0.3  747  283           
21 19.09.17 330 (СЗ) 20000 м    10/8 600 м кучево-дожд., средняя 
[Cb cap|Ac As]
+15 +13.2 89 +22  1005.2  0.9  748  283  +13.5        влажная 
00 20.09.17 310 (СЗ) 20000 м    8/6 600 м кучево-дожд., средняя, верхняя 
[Cb cap|As trans|Ci fib]
+17.3 +13.1 76 +24  1006.5  1.4  749  281           
03 20.09.17 330 (СЗ) 5{10}  20000 м    8/5 600 м кучево-дожд., верхняя 
[Cb cap|Ci fib]
+21.1 +11.6 55 +24  1006  -0.4  748  278           
06 20.09.17 330 (СЗ) 20000 м    8/6 600 м кучево-дожд., верхняя 
[Cb calv|Ci fib]
+22.4 +9.4 44 +23  1005.3  -0.7  748  277           
09 20.09.17 350 (С) 20000 м    6/0 верхняя 
[Ci fib]
+18.3 +8.9 54 +19  1006.6  1.1  749  281    +22.5       
12 20.09.17 300 (СЗ) 20000 м    6/0 верхняя 
[Ci fib]
+13.1 +8 71 +14  1008.1  1.4  750  287           
15 20.09.17 340 (С) 20000 м    5/0 верхняя 
[Ci fib]
+7.4 +6.8 96 +8  1009.4  1.1  750  293           
18 20.09.17 280 (З) 20000 м    3/0 верхняя 
[Ci fib]
+7.5 +6.1 91 +7  1009.9  0.5  751  293           
21 20.09.17 300 (СЗ) 20000 м    3/0 средняя, верхняя 
[As trans|Ci fib]
+6.8 +5.7 93 +7  1010.4  0.5  751  294  +5.1        влажная 
00 21.09.17 310 (СЗ) 20000 м    8/0 верхняя 
[Ci fib]
+13.2 +8.4 73 +14  1010.9  0.7  752  287           
03 21.09.17 190 (Ю) 20000 м    5/0 верхняя 
[Ci fib]
+22.3 +8.6 41 +22  1009.8  -0.8  751  278           
06 21.09.17 200 (Ю) 20000 м    6/0 верхняя 
[Ci fib]
+23.9 +7.5 35 +24  1008.5  -1.3  750  277           
09 21.09.17 170 (Ю) 20000 м    10/0 верхняя 
[Ci fib]
+20 +10.6 55 +22  1008.5  0.1  750  280    +24.1       
12 21.09.17 тихо ()   20000 м    6/0 верхняя 
[Ci fib]
+10.8 +9.9 94 +12  1009.6    751  289           
15 21.09.17 тихо ()   20000 м    6/0 верхняя 
[Ci fib]
+8.4 +7.9 97 +8  1010.4  0.7  751  292           
18 21.09.17 340 (С) 20000 м    6/0 верхняя 
[Cs]
+7.3 +6.9 97 +8  1010.6  0.1  751  294           
21 21.09.17 330 (СЗ) 20000 м    8/0 средняя, верхняя 
[Ac trans|Ci fib]
+6.7 +6.4 98 +8  1010.4  -0.3  751  294  +6.1        влажная 
00 22.09.17 070 (В) 20000 м    6/3 600 м средняя, верхняя 
[As trans|Ci fib]
+15 +11.2 78 +19  1010.2  0.1  751  285           
03 22.09.17 140 (ЮВ) 20000 м    10/0 средняя, верхняя 
[Ac As|Ci]
+22.9 +13.2 54 +29  1008.4  -1.6  750  276           
06 22.09.17 180 (Ю) 20000 м    10/6 600 м кучево-дожд., средняя, верхняя 
[Cb cap|Ac As|Ci]
+25.2 +11.5 42 +28  1007  -1.4  749  274           
09 22.09.17 150 (ЮВ) 20000 м    10/8 600 м кучево-дожд., средняя 
[Cb cap|Ac und]
+20.6 +13.8 65 +27  1007.1  749  278    +25.7       
12 22.09.17 040 (СВ) 20000 м    10/8 600 м кучево-дожд., средняя 
[Cb cap|Ac und]
+15.8 +13.6 87 +23  1007.3  749  283           
15 22.09.17 260 (З) 4000 м  гроза, ливневой дождь  10/10 600 м кучево-дожд. 
[Cb cap]
+14.9 +14.5 97 +24  1006.5  -0.8  749  283           
18 22.09.17 110 (В) 20000 м  в посл. час гроза{ливн. осадки}  10/10 600 м кучево-дожд. 
[Cb cap]
+13.3 +13 98 +20  1006.1  -0.5  748  285           
Время (UTC), дата Ветер
(°,м/с) 
Видим.   Явления Облачность Т
(°С)
Тd
(°С)
f(%) Тe
(°С)
Pmin
(гПа)
dP
(гПа)
Po
(мм)
O2
(г/м3)
Тmin Tmax R s Состояние
почвы

Для получения пояснительной информации подведите курсор к названию столбца.

ПОГОДА Екатерино-Никольское - архив

Всё, что Вы хотите узнать о погоде Екатерино-Никольское - удобно и подробно!

Выберите нужную дату (начиная с 1 января 2015* года) и нажмите кнопку "Найти".
Будут отображены архивные сводки погоды по пункту Екатерино-Никольское, начиная с указанной даты.


Отображать данные в формате CSV (для использования в таблицах Excel)


Внимание! Наш архив погоды предназначен исключительно для личного некоммерческого использования в познавательных целях. Если Вам необходимы официальные справки о состоянии погоды (для производственных, юридических, коммерческих и т.п. целей), обращайтесь в органы Росгидромета.

*Примечание: данная дата относится к архиву по метеостанциям СССР (Россия, СНГ, Балтия).
Архив по метеостанциям Зарубежной Европы и Азии (кроме Китая) хранится 10 дней, по другим регионам земного шара (Китай, Африка, Америка, Австралия, Океания) - 1 день.

Екатерино-Никольское - район местоположения метеостанции


Название, широта, долгота, высота метеостанции:
Екатерино-Никольское 47.7°ш. 131°д. 73 м над ур. моря [Российская Федерация]

Дополнительная информация

В oтличие oт бoльшинства пoгoдных сайтoв мы публикуем пoдрoбную метеoинфoрмацию в детальнoм прoфессиoнальнoм фoрмате.

Характеристики температуры и влажнoсти вoздуха измеряются на высoте 2 м в тени вдали oт зданий и деревьев.
Скoрoсть ветра измеряется на высoте 10 м (на урoвне рoста челoвека скoрoсть ветра ниже в 1.5-2 раза). Если метеoстанция нахoдится в гoрoде или в лесу, тo скoрoсть ветра занижена на 2-4 м/с пo сравнению с oткрытым местoм. Скoрoсть ветра над акватoриями крупных рек и oзёр, а также на вершинах хoлмoв на 2-5 м/с выше, чем в oбычных услoвиях.
Атмoсфернoе давление в разных тoчках местнoсти мoжет значительнo oтличаться oт давления на метеoстанции, в зависимoсти oт услoвий рельефа (при пoдъёме на 10 м давление пoнижается примернo на 1 мм рт.ст.).